| Temperature (°F) | Max | Average | Min |
|---|---|---|---|
| Max Temperature | 84 | 73.74 | 59 |
| Avg Temperature | 73.44 | 61.17 | 52.54 |
| Min Temperature | 64 | 50.16 | 41 |
| Dew Point (°F) | Max | Average | Min |
|---|---|---|---|
| Dew Point | 58 | 36.93 | 12 |
| Precipitation (in) | Max | Average | Min | Sum |
|---|---|---|---|---|
| Precipitation | 1.03 | 0.06 | 0.00 | 1.79 |
| Snowdepth | 0.00 | 0.00 | 0.00 | 0.00 |
| Wind (mph) | Max | Average | Min |
|---|---|---|---|
| Wind | 29 | 5.94 | 0 |
| Gust Wind | 41 | 2.97 | 0 |
| Sea Level Pressure (in) | Max | Average | Min |
|---|---|---|---|
| Sea Level Pressure | 29.43 | 29.23 | 28.75 |
| Date | Temperature (°F) | Dew Point (°F) | Humidity (%) | Wind Speed (mph) | Pressure (in) | Precipitation (in) | ||||||||||
|---|---|---|---|---|---|---|---|---|---|---|---|---|---|---|---|---|
| Max | Avg | Min | Max | Avg | Min | Max | Avg | Min | Max | Avg | Min | Max | Avg | Min | ||
| 1/31/2018 | 83 | 63.2 | 46 | 37 | 32.6 | 27 | 56 | 35.1 | 13 | 9 | 1.6 | 0 | 29.2 | 29.1 | 29.0 | 0.00 |
| 1/30/2018 | 83 | 65.9 | 47 | 35 | 31.6 | 27 | 47 | 29.8 | 15 | 7 | 2.0 | 0 | 29.2 | 29.2 | 29.1 | 0.00 |
| 1/29/2018 | 80 | 73.4 | 54 | 29 | 26.4 | 24 | 29 | 17.6 | 14 | 26 | 13.2 | 0 | 29.3 | 29.3 | 29.2 | 0.00 |
| 1/28/2018 | 83 | 72.8 | 61 | 30 | 27.0 | 23 | 22 | 18.5 | 15 | 29 | 19.3 | 0 | 29.4 | 29.3 | 29.3 | 0.00 |
| 1/27/2018 | 81 | 62.0 | 64 | 24 | 17.7 | 12 | 42 | 19.3 | 11 | 28 | 15.3 | 0 | 29.4 | 29.3 | 29.3 | 0.00 |
| 1/26/2018 | 72 | 56.6 | 46 | 31 | 24.6 | 16 | 52 | 31.5 | 17 | 14 | 8.5 | 0 | 29.4 | 29.3 | 29.3 | 0.00 |
| 1/25/2018 | 67 | 53.1 | 46 | 48 | 36.9 | 26 | 72 | 55.4 | 35 | 17 | 6.3 | 0 | 29.3 | 29.2 | 29.1 | 0.00 |
| 1/24/2018 | 63 | 57.9 | 43 | 34 | 27.5 | 20 | 58 | 35.1 | 14 | 8 | 2.1 | 0 | 29.3 | 29.2 | 29.2 | 0.00 |
| 1/23/2018 | 74 | 62.0 | 43 | 28 | 23.8 | 20 | 41 | 24.0 | 17 | 16 | 10.2 | 0 | 29.3 | 29.3 | 29.2 | 0.00 |
| 1/22/2018 | 73 | 59.3 | 51 | 24 | 20.7 | 16 | 30 | 22.8 | 15 | 18 | 11.9 | 3 | 29.4 | 29.3 | 29.3 | 0.00 |
| 1/21/2018 | 68 | 52.9 | 51 | 28 | 22.5 | 16 | 56 | 32.0 | 16 | 16 | 5.4 | 0 | 29.4 | 29.4 | 29.3 | 0.00 |
| 1/20/2018 | 64 | 52.5 | 41 | 32 | 28.4 | 25 | 50 | 40.0 | 31 | 22 | 15.1 | 3 | 29.3 | 29.2 | 29.1 | 0.00 |
| 1/19/2018 | 59 | 55.5 | 49 | 53 | 46.6 | 28 | 93 | 73.2 | 40 | 14 | 5.9 | 0 | 29.2 | 29.1 | 29.0 | 0.00 |
| 1/18/2018 | 60 | 63.2 | 51 | 46 | 42.1 | 39 | 68 | 48.6 | 25 | 10 | 2.9 | 0 | 29.3 | 29.2 | 29.2 | 0.00 |
| 1/17/2018 | 78 | 63.9 | 51 | 48 | 41.9 | 35 | 86 | 50.6 | 20 | 15 | 3.5 | 0 | 29.3 | 29.3 | 29.2 | 0.00 |
| 1/16/2018 | 80 | 60.5 | 50 | 51 | 45.0 | 38 | 77 | 59.1 | 29 | 7 | 1.4 | 0 | 29.3 | 29.3 | 29.2 | 0.00 |
| 1/15/2018 | 73 | 61.0 | 50 | 43 | 39.5 | 34 | 71 | 48.0 | 26 | 7 | 2.2 | 0 | 29.3 | 29.2 | 29.2 | 0.00 |
| 1/14/2018 | 76 | 68.3 | 47 | 40 | 32.1 | 26 | 53 | 27.8 | 17 | 13 | 5.5 | 0 | 29.3 | 29.3 | 29.2 | 0.00 |
| 1/13/2018 | 81 | 71.4 | 55 | 34 | 31.4 | 26 | 33 | 23.4 | 16 | 20 | 12.8 | 3 | 29.3 | 29.3 | 29.2 | 0.00 |
| 1/12/2018 | 82 | 64.8 | 57 | 48 | 41.3 | 33 | 89 | 49.9 | 17 | 17 | 8.1 | 0 | 29.3 | 29.3 | 29.2 | 0.00 |
| 1/11/2018 | 84 | 57.3 | 47 | 51 | 47.4 | 43 | 97 | 73.1 | 38 | 5 | 1.1 | 0 | 29.4 | 29.3 | 29.3 | 0.00 |
| 1/10/2018 | 73 | 53.0 | 45 | 51 | 45.9 | 43 | 100 | 80.3 | 42 | 18 | 3.8 | 0 | 29.3 | 29.2 | 29.0 | 1.03 |
| 1/9/2018 | 67 | 54.7 | 44 | 57 | 52.4 | 46 | 100 | 92.1 | 80 | 17 | 8.9 | 0 | 29.0 | 28.9 | 28.8 | 0.76 |
| 1/8/2018 | 59 | 60.5 | 47 | 58 | 54.8 | 50 | 96 | 82.1 | 65 | 13 | 4.3 | 0 | 29.1 | 29.1 | 28.9 | 0.00 |
| 1/7/2018 | 64 | 60.3 | 59 | 55 | 50.7 | 39 | 100 | 75.8 | 27 | 6 | 1.1 | 0 | 29.3 | 29.2 | 29.1 | 0.00 |
| 1/6/2018 | 76 | 62.3 | 50 | 56 | 54.2 | 53 | 90 | 76.0 | 53 | 9 | 2.6 | 0 | 29.3 | 29.3 | 29.2 | 0.00 |
| 1/5/2018 | 73 | 62.8 | 56 | 56 | 53.3 | 49 | 89 | 72.6 | 46 | 10 | 2.1 | 0 | 29.4 | 29.3 | 29.3 | 0.00 |
| 1/4/2018 | 76 | 62.5 | 52 | 52 | 42.2 | 30 | 72 | 49.7 | 22 | 8 | 2.1 | 0 | 29.3 | 29.3 | 29.2 | 0.00 |
| 1/3/2018 | 76 | 61.4 | 51 | 35 | 30.4 | 23 | 49 | 32.8 | 15 | 5 | 1.1 | 0 | 29.2 | 29.2 | 29.2 | 0.00 |
| 1/2/2018 | 75 | 64.0 | 51 | 45 | 32.6 | 18 | 77 | 39.6 | 10 | 9 | 2.7 | 0 | 29.3 | 29.3 | 29.2 | 0.00 |
| 1/1/2018 | 83 | 57.3 | 50 | 47 | 41.2 | 32 | 86 | 60.1 | 21 | 6 | 1.1 | 0 | 29.3 | 29.3 | 29.2 | 0.00 |